Submittal Forms
Current Contests
Recent Contests

Club Activity Tracker - Contest Club Ontario (from club selection on form)

Recent postings for the selected club or group are listed below. Other than the call used, all calls listed are only those associated with the club or group. Click on a call to see the details of the posting.
Status Key: new=new posting, update=update prior posting, move=change club/group, delete=delete prior posting.

Sort by   for past

TimestampCallContestClassPowerScoreStatus
2020-05-22 13:38:48VA3SBCWopsTSingle OpLP3,025new5594
2020-05-22 13:37:19VA3SBCWopsTSingle OpLP900new5592
2020-05-21 04:06:59VE3FUCWopsTSingle OpLP2,688new5594
2020-05-21 04:06:58VE3KZCWopsTSingle OpHP5,400new5594
2020-05-21 04:05:45VE3MACWopsTSingle OpLP6,177new5594
2020-05-21 04:05:39VE3KICWopsTSingle OpLP8,836new5594
2020-05-21 04:03:53VE3GFNCWopsTSingle OpLP4,012new5594
2020-05-21 04:03:49VE3NNTCWopsTSingle OpHP16,641new5594
2020-05-21 04:01:46VE3DZCWopsTSingle OpHP23,345new5594
2020-05-21 03:31:29VE3MVCWopsTSingle OpLP1,225new5594
 
2020-05-21 00:00:36VE3MVCWopsTSingle OpLP3,575update5592
2020-05-20 21:44:45VE3MACWopsTSingle OpLP6,952new5593
2020-05-20 20:10:28VE3KZCWopsTSingle OpHP4,356new5593
2020-05-20 20:05:51VE3KICWopsTSingle OpLP9,880new5593
2020-05-20 20:03:18VE3GFNCWopsTSingle OpLP5,402new5593
2020-05-20 20:02:40VE3NNTCWopsTSingle OpHP19,321new5593
2020-05-20 20:02:04VE3TWCWopsTSingle OpHP7,290new5593
2020-05-20 20:01:39VE3MVCWopsTSingle OpLP5,904new5593
2020-05-20 17:58:33VE3MACWopsTSingle OpLP4,544new5592
2020-05-20 14:23:12VE3KZCWopsTSingle OpHP6,006new5592
 
2020-05-20 14:04:14VE3MGYCWopsTSingle OpLP11,716new5592
2020-05-20 14:04:09VE3GFNCWopsTSingle OpLP5,183new5592
2020-05-20 14:03:11VE3NNTCWopsTSingle OpHP20,736new5592
2020-05-20 14:03:03VE3TWCWopsTSingle OpHP6,156new5592
2020-05-20 13:48:46VE3KICWopsTSingle OpLP625new5592
2020-05-18 23:57:54VE3KTBHamventionSingle OpLP32new5569
2020-05-17 20:08:49VA3AMXKing of Spain CWSOABQRP288new5583
2020-05-17 13:17:50VE3CXKing of Spain CWSOSB/20HP7,150new5583
2020-05-17 08:31:44VE3MGYHamventionSingle OpLP218new5569
2020-05-17 03:51:26VE3PJHamventionSingle OpLP694update5569
 
2020-05-17 02:42:22VE3BKHamventionSingle OpHP79new5569
2020-05-17 01:09:35VE3EJHamventionSingle OpHP220new5569
2020-05-17 00:44:38VE3NEHamventionSingle OpHP395new5569
2020-05-17 00:42:37VE3RKSHamventionSingle OpLP7new5569
2020-05-17 00:41:55VE3CXHamventionSingle OpHP103new5569
2020-05-17 00:18:12VE3IDTHamventionSingle OpLP64new5569
2020-05-17 00:16:18VA3AMXHamventionSingle OpQRP7new5569
2020-05-17 00:07:31VE3KIHamventionSingle OpLP285new5569
2020-05-17 00:05:31VE3YTHamventionSingle OpHP331new5569
2020-05-15 16:05:59VE3KIHopeSingle OpHP936new5581
 
2020-05-15 03:03:48VE3YTNCCC SprintSingle OpLP972new5580
2020-05-14 16:05:10VE3KZCWopsTSingle OpHP4,032new5576
2020-05-14 13:55:46VA3SBCWopsTSingle OpLP1,600new5576
2020-05-14 13:37:07VE3OIL/R(@VE3OIL)50SprngSprntRoverLP480new5567
2020-05-14 04:32:40VE3MACWopsTSingle OpLP7,176new5576
2020-05-14 04:11:28VE3GFNCWopsTSingle OpLP4,752new5576
2020-05-14 04:06:28VE3KICWopsTSingle OpHP13,685new5576
2020-05-14 04:04:51VE3NNTCWopsTSingle OpHP14,859new5576
2020-05-14 04:03:33VE3NECWopsTSingle OpHP7,395new5576
2020-05-14 04:02:25VE3EJCWopsTSingle OpHP17,343new5576
 
2020-05-14 03:32:43VE3MVCWopsTSingle OpLP1,935new5576
2020-05-14 01:16:25VA3RKMOnQPSingle OpLP30,082new5507
2020-05-13 21:34:56VA3SBCWopsTSingle OpLP5,700new5575
2020-05-13 21:33:59VA3SBCWopsTSingle OpLP9,216new5574
2020-05-13 21:15:01VE3MACWopsTSingle OpLP6,240new5575
2020-05-13 20:54:44VE3KZCWopsTSingle OpHP1,764new5575
2020-05-13 20:06:54VE3GFNCWopsTSingle OpLP4,970new5575
2020-05-13 20:06:52VE3KICWopsTSingle OpHP16,640new5575
2020-05-13 20:04:48VE3NNTCWopsTSingle OpHP4,422new5575
2020-05-13 20:02:44VE3EJCWopsTSingle OpHP19,872new5575
 
2020-05-13 20:02:04VE3TMCWopsTSingle OpLP3,025new5575
2020-05-13 20:01:48VE3MVCWopsTSingle OpLP4,620new5575
2020-05-13 14:16:49VE3KZCWopsTSingle OpHP1,225new5574
2020-05-13 14:07:43VE3GFNCWopsTSingle OpLP5,390new5574
2020-05-13 14:03:49VE3KICWopsTSingle OpHP17,424new5574
2020-05-13 14:02:56VE3EJCWopsTSingle OpHP27,040new5574
2020-05-13 14:01:57VE3MGYCWopsTSingle OpLP14,835new5574
2020-05-13 14:01:37VE3NNTCWopsTSingle OpHP16,000new5574
2020-05-13 14:01:36VE3MVCWopsTSingle OpLP4,480new5574
2020-05-11 09:52:13VE3SST50SprngSprntSingle OpLP264new5567
 
2020-05-11 00:21:43VA3LRVolta RTTYSOABHP1,516,900new5563
2020-05-11 00:01:24VE3PJ50SprngSprntSingle OpLP560new5567
2020-05-10 17:21:09VE2GT50SprngSprntSingle OpLP280new5567
2020-05-10 17:16:50VA3ELE50SprngSprntSingle OpHP147new5567
2020-05-10 17:00:35VE3NECQ-MSOABCWHP29,430new5564
2020-05-10 15:24:37VE3WGArQPSOMixedLP7,164update5565
2020-05-10 15:23:57VE3KZ50SprngSprntSingle OpLP112update5567
2020-05-10 14:38:35VE3WY50SprngSprntSingle OpHP1,225new5567
2020-05-10 14:12:27VE3CWUArQPSOMixedLP348new5565
2020-05-10 13:05:38VA6RCN(VE3RCN)Volta RTTYSOABLP23,940new5563
 
2020-05-10 13:05:04VE3AQArQPSOCWLP1,470new5565
2020-05-10 13:00:24VA6RCNArQPSOMixedLP45new5565
2020-05-10 12:56:11VE3TWArQPSOMixedHP2,720new5565
2020-05-10 12:45:40VE3PQArQPSOCWLP872new5565
2020-05-10 12:20:50VE3TMCQ-MSOSB/20CWLP23,985new5564
2020-05-10 12:15:16VE3NNTCQ-MSOABCWHP268,400new5564
2020-05-09 20:33:51VA3PCArQPM/SLP100new5565
 (@VA3PC)
2020-05-09 16:13:28VE3KTBNewEngQPSingle OpHP1,134new5547
2020-05-09 16:11:46VE3KTBDeQPSingle OpHP160new5546
2020-05-09 01:07:46VA3ELE/R(VA3ELE)MWaveSprngSprntRoverHP3,453new5542
 
2020-05-08 03:04:41VE3YTNCCC SprintSingle OpLP1,591new5562
2020-05-07 14:46:08VA3SBCWopsTSingle OpLP8,836new5559
2020-05-07 14:45:14VA3SBCWopsTSingle OpLP7,225new5558
2020-05-07 14:44:23VA3SBCWopsTSingle OpLP7,921new5557
2020-05-07 14:34:41VE3KIHopeSingle OpHP1,200new5552
2020-05-07 04:24:09VE3MACWopsTSingle OpLP7,030new5559
2020-05-07 04:08:19VE3GFNCWopsTSingle OpLP6,557new5559
2020-05-07 04:07:30VE3NNTCWopsTSingle OpHP18,590new5559
2020-05-07 04:04:42VE3KICWopsTSingle OpHP10,400new5559
2020-05-07 04:02:21VE3EJCWopsTSingle OpHP18,415new5559
 
2020-05-07 03:36:11VE3MVCWopsTSingle OpLP1,600new5559
2020-05-07 00:43:36VE3AQNewEngQPSingle OpLP11,928new5547
2020-05-07 00:08:43VE3AQInQPSingle OpLP768new5545
2020-05-06 20:22:09VE3MACWopsTSingle OpLP4,224new5558
2020-05-06 20:21:16VE3MACWopsTSingle OpLP9new5557
2020-05-06 20:03:15VE3NNTCWopsTSingle OpHP10,815new5558
2020-05-06 20:02:47VE3KICWopsTSingle OpHP12,769new5558
2020-05-06 20:02:11VE3EJCWopsTSingle OpHP23,400new5558
2020-05-06 20:02:07VE3TWCWopsTSingle OpHP5,694new5558
2020-05-06 20:01:48VE3MVCWopsTSingle OpLP4,224new5558
 
2020-05-06 14:08:17VE3GFNCWopsTSingle OpLP4,290new5557
2020-05-06 14:04:56VE3NNTCWopsTSingle OpHP13,225new5557
2020-05-06 14:04:06VE3MVCWopsTSingle OpLP4,012new5557
2020-05-06 14:02:52VE3KIHopeSingle OpHP2,125new5551
2020-05-06 14:02:41VE3EJCWopsTSingle OpHP18,432new5557
2020-05-06 14:02:36VE3MGYCWopsTSingle OpLP14,260new5557
2020-05-06 14:02:28VE3TMCWopsTSingle OpLP2,601new5557
2020-05-06 14:01:47VE3TWCWopsTSingle OpHP4,402new5557
2020-05-06 14:00:51VE3KICWopsTSingle OpHP16,384new5557
2020-05-06 02:48:17VE3CX7QPSO(A)CWHP27,186new5544
 
2020-05-06 02:44:51VE3AQ7QPSO(A)CWLP16,254new5544
2020-05-04 21:53:11VA6RCNDeQPSingle OpLP90new5546
2020-05-04 21:32:24VA3TO/R(VA3TO)MWaveSprngSprntRoverLP2,096new5542
2020-05-04 21:18:35VA6RCNNewEngQPSingle OpLP902new5547
2020-05-04 21:16:00VA6RCN7QPSOMixedLP6,188new5544
2020-05-04 21:08:28VA6RCNInQPSingle OpLP28new5545
2020-05-04 16:03:23VE3CWUNewEngQPSingle OpLP3,300new5547
2020-05-04 15:32:29VE3WGDeQPSingle OpLP890update5546
2020-05-04 15:29:05VE3TW7QPSO(A)MixedHP14,650update5544
2020-05-04 15:28:29VE3TWNewEngQPSingle OpHP8,400update5547
 
2020-05-04 15:27:40VE3TWInQPSingle OpHP2update5545
2020-05-04 15:26:42VE3TWDeQPSingle OpHP140update5546
2020-05-04 15:00:27VE3PQNewEngQPSingle OpLP3,720new5547
2020-05-04 14:07:10VE3PQInQPSingle OpLP32new5545
2020-05-04 11:05:36VE3DQNNewEngQPSingle OpLP1,452new5547
2020-05-04 08:54:22VE3MGYInQPSingle OpLP264new5545
2020-05-04 08:53:17VE3MGYNewEngQPSingle OpLP1,702new5547
2020-05-04 08:52:20VE3MGYDeQPSingle OpLP600new5546
2020-05-04 08:51:06VE3MGY7QPSO(A)CWLP4,785new5544
2020-05-04 00:21:27VE3WGNewEngQPSingle OpLP9,184new5547
 
2020-05-03 20:01:49VA3PCNewEngQPSingle OpLP672update5547
2020-05-03 19:57:10VE3CWU7QPSO(A)CWLP8,686update5544
2020-05-03 19:42:59VE3NNT7QPSO(A)CWHP21,004new5544
2020-05-03 18:03:22VE3PQ7QPSOCWLP3,360new5544
2020-05-03 14:24:42VA3CWMWaveSprngSprntSingle OpLP974new5542
2020-05-03 06:34:24VA3NGE7QPSO(A)CWLP7,623new5544
2020-05-03 01:21:59VA3PCInQPSingle OpLP228new5545
2020-05-03 01:20:40VA3PCDeQPSingle OpLP170new5546
2020-05-03 01:19:48VA3PC7QPSO(A)SSBLP2,160new5544
2020-05-02 21:07:05VE3ZVMWaveSprngSprntSingle OpHP4,413new5542
 
2020-05-02 20:01:46VE3ADOnQPSO SSBHP2,128new5507
2020-05-02 18:58:05VE3DSMWaveSprngSprntSingle OpLP3,882new5542
2020-05-01 19:03:23VA3SBCWopsTSingle OpLP1,764new5535
2020-05-01 16:17:43VE3KIHopeSingle OpHP4,830new5541
2020-05-01 03:04:06VE3YTNCCC SprintSingle OpLP1,320new5540
2020-04-30 21:25:45VA3SBCWopsTSingle OpLP9,216new5537
2020-04-30 05:23:21VE3FUCWopsTSingle OpLP4,623new5537
2020-04-30 04:04:17VE3GFNCWopsTSingle OpLP7,482new5537
2020-04-30 04:04:09VE3KICWopsTSingle OpHP11,220new5537
2020-04-30 04:03:14VE3MACWopsTSingle OpLP7,176new5537
 
2020-04-30 04:03:03VE3EJCWopsTSingle OpHP19,370new5537
2020-04-30 04:01:19VE3MVCWopsTSingle OpLP6,237new5537
2020-04-29 23:49:03VE3MACWopsTSingle OpLP4,422new5535
2020-04-29 22:21:19VE3EJFlQPSOABCWLP13,600new5529
2020-04-29 20:12:33VE3GFNCWopsTSingle OpLP3,025new5536
2020-04-29 20:06:29VE3KICWopsTSingle OpHP10,201new5536
2020-04-29 20:04:58VE3TWCWopsTSingle OpHP6,396new5536
2020-04-29 20:02:32VE3MVCWopsTSingle OpLP5,548new5536
2020-04-29 20:02:15VE3EJCWopsTSingle OpHP21,300new5536
2020-04-29 20:02:10VE3TMCWopsTSingle OpLP1,764new5535
 
2020-04-29 15:42:38VE3FRWPX SSBSOABLP19,558new5452
2020-04-29 15:30:58VE3FROnQPSO SSBLP36new5507
2020-04-29 14:45:23VE3OIL/R(VE3OIL)432SprngSprntRoverLP160new5517
2020-04-29 14:05:00VE3HEUCWopsTSingle OpLP729new5535
2020-04-29 14:04:47VE3FRMiQPSingle OpLP36new5490
2020-04-29 14:02:56VE3EJCWopsTSingle OpHP20,720new5535
2020-04-29 14:01:56VE3TWCWopsTSingle OpHP5,609new5535
2020-04-29 14:01:51VE3MVCWopsTSingle OpLP4,140new5535
2020-04-29 13:58:08VE3MGYCWopsTSingle OpLP14,112new5535
2020-04-29 02:06:04VE3VYFlQPSOABMixedLP64,219update5529
 
2020-04-29 02:05:19VE3MVFlQPSOAB(A)MixedLP55,720update5529
2020-04-29 02:04:18VE3IKVFlQPSOABMixedLP25,650update5529
2020-04-28 13:50:27VE3LVWFlQPSOABMixedLP3,483new5529
2020-04-28 01:08:48VE3NRFlQPSOAB(A)MixedLP66,400update5529
2020-04-27 23:21:06VE3KJQFlQPSOABSSBQRP90new5529
2020-04-27 22:43:18VE3WGFlQPSOAB(A)MixedLP30,870new5529
2020-04-27 16:27:44VE3PJFlQPSOAB(A)MixedLP87,084update5529
2020-04-27 14:50:18VE3PQFlQPSOABCWLP5,152update5529
2020-04-27 14:49:44VE3MGYFlQPSOAB(A)CWLP4,160update5529
2020-04-27 13:59:28VE3AQFlQPSOAB(A)CWLP24,320new5529
 
2020-04-27 10:29:32VE3CWUFlQPSOAB(A)MixedLP41,184new5529
2020-04-27 00:27:55VA3WUFlQPSOABSSBLP182new5529
2020-04-26 23:54:18VE3JIFlQPSOAB(A)MixedLP34,706new5529
2020-04-26 23:47:33VE3DQNFlQPSOABCWLP600new5529
2020-04-26 23:46:56VE3BRFlQPSOABMixedLP54,528new5529
2020-04-26 23:41:23VE3TWFlQPSOAB(A)MixedHP29,439new5529
2020-04-26 23:37:30VE3SSTFlQPSOABMixedLP30,134new5529
2020-04-26 23:33:06VE3IDTFlQPSOABSSBLP2,870new5529
2020-04-26 23:21:41VA3DFFlQPSOABMixedLP112,200new5529
2020-04-26 23:06:12VE3GYLFlQPSOABSSBHP2,520new5529
 
2020-04-26 23:03:53VE3TMFlQPSOABMixedLP52,706new5529
2020-04-26 23:03:04VE3UZFlQPSOABCWHP12,546new5529
2020-04-26 23:02:09VE3CXFlQPSOAB(A)MixedHP39,771new5529
2020-04-26 22:22:14VA3ECFlQPSOABCWLP17,712new5529
2020-04-26 22:20:33VA3NGEFlQPSOAB(A)CWLP15,096new5529
2020-04-26 22:09:58VE3DZFlQPSOABCWLP27,216new5529
2020-04-26 21:51:13VE3KZFlQPSOABCWQRP52,272new5529
2020-04-26 21:49:38VA6RCNFlQPSOABMixedLP2,088new5529
2020-04-26 21:26:34VE3GFNFlQPSOAB(A)MixedLP32,214new5529
2020-04-26 19:53:17VE3VNFlQPSOABCWLP14,400new5529
 
2020-04-26 15:09:18VA3PCFlQPSOAB(A)SSBHP1,760new5529
2020-04-26 13:17:09VE3XDFlQPSOAB(A)CWLP1,804new